Meacham, OR

12:05 PM PST on December 11, 2017 (GMT -0800)
Meacham

Weather History for KMEH - May, 2013

Change the Weather History Date:

Wednesday, May 22, 2013

  Actual Average Record
Temperature  
Mean Temperature 37 °F -  
Max Temperature 44 °F 59 °F 82 °F (2001)
Min Temperature 30 °F 34 °F 28 °F (1997)
Degree Days  
Heating Degree Days 28    
Moisture  
Dew Point 31 °F    
Average Humidity 88    
Maximum Humidity 100    
Minimum Humidity 67    
Precipitation  
Precipitation 0.20 in - - ()
Sea Level Pressure  
Sea Level Pressure 29.91 in    
Wind  
Wind Speed 1 mph (South)    
Max Wind Speed 6 mph    
Max Gust Speed -    
Visibility 5 miles    
Events Fog , Rain , Snow    
Averages and records for this station are not official NWS values.
T = Trace of Precipitation, MM = Missing Value Source: NWS Daily Summary

Daily Weather History Graph

Daily Weather History Graph

Search for Another Location

Airport or City:

Trip Planner

Search our weather history database for the weather conditions in past years. The results will help you decide how hot, cold, wet, or windy it might be!

Date:

Astronomy

May. 22, 2013 Rise Set
Actual Time 5:15 AM PDT 8:25 PM PDT
Civil Twilight 4:39 AM PDT 9:01 PM PDT
Nautical Twilight 3:53 AM PDT 9:48 PM PDT
Astronomical Twilight 2:57 AM PDT 10:45 PM PDT
Moon 5:47 PM PDT (5/22) 3:30 AM PDT (5/22)
Length of Visible Light 16h 21m
Length of Day
15h 10m
Waxing Gibbous, 92% of the Moon is Illuminated
May 22
Waxing Gibbous
May 24
Full
May 31
Last Quarter
Jun 8
New
Jun 16
First Quarter

Hourly Weather History & Observations

Time (PDT) Temp. Windchill Dew Point Humidity Pressure Visibility Wind Dir Wind Speed Gust Speed Precip Events Conditions
12:15 AM 33.8 °F - 32.0 °F 93% 29.83 in 3.0 mi Calm Calm - 0.01 in Snow Light Snow
12:26 AM 33.8 °F - 32.0 °F 93% 29.83 in 7.0 mi Calm Calm - 0.01 in Snow Light Snow
12:56 AM 34.0 °F - 32.0 °F 92% 29.86 in 10.0 mi Calm Calm - 0.01 in   Overcast
1:31 AM 33.8 °F 30.8 °F 32.0 °F 93% 29.83 in 10.0 mi Variable 3.5 mph - N/A   Overcast
1:56 AM 34.0 °F - 30.9 °F 89% 29.88 in 10.0 mi Calm Calm - N/A   Overcast
2:13 AM 33.8 °F - 30.2 °F 87% 29.84 in 10.0 mi Calm Calm - N/A   Overcast
2:56 AM 33.1 °F - 30.0 °F 89% 29.88 in 10.0 mi Calm Calm - N/A   Overcast
3:48 AM 33.8 °F - 32.0 °F 93% 29.84 in 10.0 mi Calm Calm - N/A   Overcast
3:56 AM 34.0 °F - 30.9 °F 89% 29.87 in 10.0 mi Calm Calm - N/A   Overcast
4:56 AM 33.1 °F - 30.0 °F 89% 29.87 in 10.0 mi Calm Calm - N/A   Overcast
5:56 AM 32.0 °F - 28.9 °F 88% 29.88 in 3.0 mi Calm Calm - 0.01 in Snow Light Snow
6:06 AM 32.0 °F 26.4 °F 28.4 °F 87% 29.85 in 2.0 mi West 5.8 mph - 0.00 in Snow Light Snow
6:20 AM 32.0 °F 28.7 °F 28.4 °F 87% 29.85 in 4.0 mi Variable 3.5 mph - 0.00 in Snow Light Snow
6:28 AM 32.0 °F 28.7 °F 28.4 °F 87% 29.85 in 1.8 mi Variable 3.5 mph - 0.00 in Snow Light Snow
6:49 AM 32.0 °F - 28.4 °F 87% 29.86 in 2.0 mi Calm Calm - 0.00 in Snow Light Snow
6:56 AM 33.1 °F - 28.9 °F 85% 29.89 in 3.0 mi Calm Calm - 0.00 in Snow Light Snow
7:10 AM 33.8 °F - 30.2 °F 87% 29.85 in 2.5 mi Calm Calm - 0.00 in Snow Light Snow
7:33 AM 33.8 °F - 30.2 °F 87% 29.85 in 1.8 mi Calm Calm - 0.00 in Snow Light Snow
7:49 AM 33.8 °F - 30.2 °F 87% 29.86 in 3.0 mi Calm Calm - 0.00 in Snow Light Snow
8:01 AM 33.8 °F 30.8 °F 30.2 °F 87% 29.85 in 3.0 mi Variable 3.5 mph - 0.00 in Snow Light Snow
8:12 AM 33.8 °F - 30.2 °F 87% 29.85 in 5.0 mi Calm Calm - 0.00 in Snow Light Snow
8:40 AM 35.6 °F - 30.2 °F 81% 29.86 in 10.0 mi Calm Calm - 0.00 in   Overcast
8:56 AM 36.0 °F - 30.9 °F 82% 29.92 in 5.0 mi Calm Calm - 0.00 in Snow Light Snow
9:56 AM 37.9 °F 35.5 °F 30.9 °F 76% 29.90 in 10.0 mi Variable 3.5 mph - 0.00 in   Overcast
10:56 AM 41.0 °F - 30.9 °F 67% 29.89 in 10.0 mi Calm Calm - N/A   Overcast
11:56 AM 37.9 °F 35.5 °F 30.9 °F 76% 29.92 in 6.0 mi Variable 3.5 mph - 0.01 in Snow Light Snow
12:56 PM 41.0 °F 39.0 °F 30.9 °F 67% 29.91 in 10.0 mi Variable 3.5 mph - 0.00 in   Mostly Cloudy
1:56 PM 39.0 °F 35.7 °F 30.9 °F 73% 29.94 in 9.0 mi Variable 4.6 mph - 0.00 in Rain Light Rain
2:08 PM 37.4 °F - 33.8 °F 87% 29.90 in 2.5 mi Calm Calm - 0.01 in Snow Light Snow
2:15 PM 37.4 °F - 33.8 °F 87% 29.90 in 4.0 mi Calm Calm - 0.01 in Snow Light Snow
2:56 PM 41.0 °F - 33.1 °F 73% 29.93 in 10.0 mi Calm Calm - 0.01 in   Mostly Cloudy
3:56 PM 42.1 °F 39.2 °F 32.0 °F 67% 29.94 in 10.0 mi Variable 4.6 mph - 0.01 in   Mostly Cloudy
4:46 PM 41.0 °F 39.0 °F 33.8 °F 76% 29.91 in 10.0 mi East 3.5 mph - 0.00 in Rain Light Rain
4:56 PM 39.9 °F - 34.0 °F 79% 29.96 in 7.0 mi Calm Calm - 0.00 in Rain Light Rain
5:34 PM 37.4 °F - 35.6 °F 93% 29.92 in 7.0 mi Calm Calm - 0.02 in Rain Light Rain
5:49 PM 37.4 °F 34.9 °F 35.6 °F 93% 29.92 in 10.0 mi Variable 3.5 mph - 0.02 in   Scattered Clouds
5:56 PM 39.0 °F - 35.1 °F 86% 29.97 in 10.0 mi Calm Calm - 0.02 in   Mostly Cloudy
6:23 PM 37.4 °F - 33.8 °F 87% 29.92 in 5.0 mi Calm Calm - 0.01 in Rain Light Rain
6:56 PM 36.0 °F - 34.0 °F 93% 29.99 in 1.8 mi Calm Calm - 0.04 in Rain Rain
7:06 PM 35.6 °F - 33.8 °F 93% 29.94 in 1.8 mi Calm Calm - 0.03 in Snow Light Snow
7:19 PM 33.8 °F - 32.0 °F 93% 29.94 in 0.8 mi Calm Calm - 0.08 in Snow Light Snow
7:27 PM 33.8 °F - 33.8 °F 100% 29.94 in 3.0 mi Calm Calm - 0.09 in Snow Light Snow
7:46 PM 33.8 °F - 32.0 °F 93% 29.94 in 7.0 mi Calm Calm - 0.09 in Snow Light Snow
7:56 PM 34.0 °F - 32.0 °F 92% 30.00 in 5.0 mi Calm Calm - 0.09 in Snow Light Snow
8:03 PM 33.8 °F - 33.8 °F 100% 29.94 in 8.0 mi Calm Calm - 0.00 in   Overcast
8:18 PM 33.8 °F - 33.8 °F 100% 29.94 in 8.0 mi Calm Calm - 0.00 in   Mostly Cloudy
8:56 PM 33.1 °F - 30.9 °F 92% 30.00 in 10.0 mi Calm Calm - 0.00 in   Scattered Clouds
9:07 PM 33.8 °F - 30.2 °F 87% 29.95 in 4.0 mi Calm Calm - N/A   Mostly Cloudy
9:18 PM 33.8 °F - 32.0 °F 93% 29.95 in 0.8 mi Calm Calm - N/A   Mist
9:33 PM 33.8 °F - 32.0 °F 93% 29.95 in 0.2 mi Calm Calm - N/A Fog Fog
9:44 PM 33.8 °F - 30.2 °F 87% 29.95 in 0.5 mi Calm Calm - N/A Fog Fog
9:56 PM 32.0 °F - 30.9 °F 96% 30.01 in 0.5 mi Calm Calm - N/A Fog Fog
10:14 PM 32.0 °F - 30.2 °F 93% 29.95 in 1.5 mi Calm Calm - N/A   Overcast
10:30 PM 32.0 °F - 30.2 °F 93% 29.95 in 0.2 mi Calm Calm - N/A Fog Fog
10:56 PM 32.0 °F - 30.0 °F 92% 30.00 in 0.5 mi Calm Calm - N/A Fog Fog
11:12 PM 32.0 °F - 30.2 °F 93% 29.95 in 0.2 mi Calm Calm - N/A Fog Fog
11:20 PM 32.0 °F - 30.2 °F 93% 29.95 in 0.5 mi Calm Calm - N/A Fog Fog
11:56 PM 30.9 °F - 30.0 °F 96% 30.01 in 2.0 mi Calm Calm - N/A   Overcast